Weather History for Elsenborn, Belgium

Change the Weather History Date:

Thursday, October 11, 2012

  Actual Average Record
Temperature  
Mean Temperature 42 °F -  
Max Temperature 58 °F 50 °F 60 °F (2007)
Min Temperature 27 °F 41 °F 27 °F (2012)
Degree Days  
Heating Degree Days 22    
Moisture  
Dew Point 40 °F    
Average Humidity 85    
Maximum Humidity 100    
Minimum Humidity 54    
Precipitation  
Precipitation 0.12 in - - ()
Sea Level Pressure  
Sea Level Pressure 29.82 in    
Wind  
Wind Speed 3 mph ()    
Max Wind Speed 11 mph    
Max Gust Speed -    
Visibility 6.7 miles    
Events Rain    
Averages and records for this station are not official NWS values.
T = Trace of Precipitation, MM = Missing Value Source: Averaged Metar Reports

Daily Weather History Graph

Daily Weather History Graph

Search for Another Location

Airport:

Trip Planner

Search our weather history database for the weather conditions in past years. The results will help you decide how hot, cold, wet, or windy it might be!

Date:

Astronomy

Oct. 11, 2012 Rise Set
Actual Time 7:51 AM CEST 6:51 PM CEST
Civil Twilight 7:19 AM CEST 7:23 PM CEST
Nautical Twilight 6:41 AM CEST 8:01 PM CEST
Astronomical Twilight 6:03 AM CEST 8:39 PM CEST
Moon 2:47 AM CEST (10/11) 4:40 PM CEST (10/11)
Length of Visible Light 12h 04m
Length of Day
10h 59m
Waning Crescent, 20% of the Moon is Illuminated
Oct 11
Waning Crescent
Oct 15
New
Oct 22
First Quarter
Oct 29
Full
Nov 7
Last Quarter

Hourly Weather History & Observations

Time (CEST) Temp. Windchill Dew Point Humidity Pressure Visibility Wind Dir Wind Speed Gust Speed Precip Events Conditions
12:25 AM 32.0 °F - 30.2 °F 93% 29.95 in 6.2 mi Calm Calm - N/A   Clear
1:25 AM 30.2 °F - 28.4 °F 93% 29.95 in 5.0 mi Calm Calm - N/A   Clear
2:00 AM 30 °F - 28 °F 86% 30.04 in 8 mi Calm Calm - -  
2:25 AM 28.4 °F - 26.6 °F 93% 29.92 in 6.2 mi Calm Calm - N/A   Clear
3:25 AM 28.4 °F - 26.6 °F 93% 29.92 in 6.2 mi Calm Calm - N/A   Clear
4:25 AM 28.4 °F - 26.6 °F 93% 29.92 in 6.2 mi Variable 1.2 mph - N/A   Partly Cloudy
5:25 AM 28.4 °F - 26.6 °F 93% 29.89 in 6.2 mi Calm Calm - N/A   Clear
6:25 AM 30.2 °F - 28.4 °F 93% 29.89 in 6.2 mi Calm Calm - N/A   Clear
7:25 AM 28.4 °F 24.6 °F 26.6 °F 93% 29.86 in 6.2 mi Variable 3.5 mph - N/A   Clear
8:00 AM 29 °F - 27 °F 87% 29.97 in 10 mi 2.2 mph - -  
8:25 AM 28.4 °F - 26.6 °F 93% 29.86 in 6.2 mi Variable 2.3 mph - N/A   Clear
9:25 AM 39.2 °F - 35.6 °F 87% 29.86 in 6.2 mi Calm Calm - N/A   Clear
10:25 AM 46.4 °F 43.5 °F 39.2 °F 76% 29.86 in 6.2 mi SSE 5.8 mph - N/A   Clear
11:00 AM 50 °F - 38 °F 54% 29.86 in 15 mi SSE 6.7 mph - -  
11:25 AM 50.0 °F - 37.4 °F 62% 29.83 in 6.2 mi South 8.1 mph - N/A   Clear
12:25 PM 53.6 °F - 41.0 °F 62% 29.83 in 6.2 mi South 8.1 mph - N/A   Clear
1:25 PM 53.6 °F - 42.8 °F 67% 29.80 in 6.2 mi South 9.2 mph - N/A   Clear
2:00 PM 54 °F - 44 °F 61% 29.79 in 12 mi SSW 6.7 mph - -  
2:25 PM 55.4 °F - 46.4 °F 72% 29.80 in 6.2 mi South 8.1 mph - N/A   Scattered Clouds
3:25 PM 57.2 °F - 46.4 °F 67% 29.77 in 6.2 mi SSE 8.1 mph - N/A   Mostly Cloudy
4:25 PM 57.2 °F - 48.2 °F 72% 29.77 in 6.2 mi South 9.2 mph - N/A   Mostly Cloudy
5:00 PM 53 °F - 47 °F 73% 29.76 in 14 mi South 6.7 mph - -   Partly Cloudy
5:25 PM 53.6 °F - 46.4 °F 77% 29.77 in 6.2 mi SSE 9.2 mph - N/A   Mostly Cloudy
6:25 PM 51.8 °F - 46.4 °F 82% 29.74 in 6.2 mi South 6.9 mph - N/A   Mostly Cloudy
7:25 PM 50.0 °F - 48.2 °F 94% 29.74 in 6.2 mi South 6.9 mph - N/A   Mostly Cloudy
7:28 PM 50.0 °F - 48.2 °F 94% 29.74 in 6.2 mi SSE 6.9 mph - N/A   Overcast
8:00 PM 50 °F - 48 °F 91% 29.75 in 6 mi SE 4.5 mph - -   Clear
8:25 PM 50.0 °F - 48.2 °F 94% 29.74 in 6.2 mi South 4.6 mph - N/A   Mostly Cloudy
9:25 PM 50.0 °F - 48.2 °F 94% 29.74 in 6.2 mi South 5.8 mph - N/A   Mostly Cloudy
10:25 PM 50.0 °F - 48.2 °F 94% 29.74 in 4.3 mi SSE 4.6 mph - N/A   Mostly Cloudy
11:00 PM 50 °F - 49 °F 95% 29.74 in 4 mi South 11.2 mph - - Rain Drizzle
11:03 PM 50.0 °F - 48.2 °F 94% 29.74 in - South 8.1 mph - N/A Rain Rain
11:25 PM 50.0 °F - 50.0 °F 100% 29.74 in - SSE 6.9 mph - N/A Rain Rain
11:28 PM 50.0 °F - 50.0 °F 100% 29.74 in 3.1 mi SSE 8.1 mph - N/A Rain Rain
11:38 PM 50.0 °F - 48.2 °F 94% 29.71 in 3.1 mi SSE 8.1 mph - N/A Rain Rain
11:48 PM 50.0 °F - 48.2 °F 94% 29.71 in - South 9.2 mph - N/A Rain Rain